LVMOA SAOM-SADF

Flight info

Callsign LVMOA
Flight time N/A
Altitude 10000
Route DCT UDITA W24 SNT DCT
Aircraft PA60/L-SDG/C

Departure

Time 2026-03-29 01:00
Airport Marcos Juarez Airport (SAOM)

Arrival

Time N/A
Airport San Fernando Airport (SADF)
Time Latitude Longitude Altitude Speed Heading
2026-03-29 00:49 -32.67963 -62.15186 370 ft 0 kts 282°
2026-03-29 00:54 -32.67975 -62.15193 373 ft 4 kts 149°
2026-03-29 00:54 -32.67989 -62.15157 369 ft 6 kts 112°
2026-03-29 00:54 -32.68017 -62.15115 370 ft 7 kts 169°
2026-03-29 00:55 -32.68068 -62.15129 370 ft 8 kts 202°
2026-03-29 00:55 -32.68101 -62.15146 370 ft 9 kts 202°
2026-03-29 00:55 -32.68107 -62.15149 369 ft 9 kts 203°
2026-03-29 00:56 -32.68121 -62.15156 370 ft 0 kts 205°
2026-03-29 00:58 -32.68177 -62.15185 369 ft 12 kts 201°
2026-03-29 00:58 -32.68226 -62.15250 368 ft 12 kts 256°
2026-03-29 00:58 -32.68230 -62.15265 367 ft 0 kts 246°
2026-03-29 00:58 -32.68230 -62.15267 367 ft 7 kts 247°
2026-03-29 00:59 -32.68352 -62.15639 369 ft 83 kts 248°
2026-03-29 00:59 -32.68614 -62.16434 397 ft 114 kts 249°
2026-03-29 00:59 -32.68877 -62.17348 533 ft 127 kts 251°
2026-03-29 00:59 -32.69190 -62.18352 867 ft 132 kts 250°
2026-03-29 01:00 -32.69524 -62.19396 1086 ft 139 kts 248°
2026-03-29 01:00 -32.69914 -62.20445 1351 ft 139 kts 250°
2026-03-29 01:00 -32.70450 -62.21372 1587 ft 143 kts 214°
2026-03-29 01:00 -32.71415 -62.21598 1840 ft 142 kts 165°
2026-03-29 01:01 -32.72218 -62.21029 2078 ft 136 kts 127°
2026-03-29 01:01 -32.72848 -62.20161 2216 ft 142 kts 122°
2026-03-29 01:01 -32.74167 -62.18208 2403 ft 159 kts 121°
2026-03-29 01:02 -32.74869 -62.17176 2509 ft 165 kts 123°
2026-03-29 01:02 -32.75624 -62.16108 2617 ft 170 kts 123°
2026-03-29 01:02 -32.77171 -62.13958 2864 ft 171 kts 123°
2026-03-29 01:03 -32.77951 -62.12877 2996 ft 172 kts 123°
2026-03-29 01:03 -32.78736 -62.11783 3079 ft 176 kts 123°
2026-03-29 01:03 -32.79524 -62.10665 3174 ft 178 kts 123°
2026-03-29 01:03 -32.80319 -62.09540 3323 ft 176 kts 123°
2026-03-29 01:04 -32.81108 -62.08438 3414 ft 173 kts 123°
2026-03-29 01:04 -32.81900 -62.07338 3478 ft 175 kts 123°
2026-03-29 01:04 -32.82676 -62.06244 3546 ft 175 kts 123°
2026-03-29 01:04 -32.83463 -62.05125 3608 ft 175 kts 123°
2026-03-29 01:05 -32.84247 -62.04000 3685 ft 178 kts 123°
2026-03-29 01:05 -32.85035 -62.02863 3780 ft 179 kts 123°
2026-03-29 01:05 -32.85831 -62.01709 3895 ft 179 kts 123°
2026-03-29 01:05 -32.86620 -62.00571 4013 ft 180 kts 123°
2026-03-29 01:06 -32.87426 -61.99417 4124 ft 181 kts 123°
2026-03-29 01:06 -32.88227 -61.98272 4232 ft 182 kts 123°
2026-03-29 01:06 -32.89030 -61.97119 4344 ft 182 kts 123°
2026-03-29 01:06 -32.89842 -61.95952 4447 ft 182 kts 123°
2026-03-29 01:07 -32.91454 -61.93614 4665 ft 185 kts 123°
2026-03-29 01:08 -32.93895 -61.90011 5123 ft 186 kts 122°
2026-03-29 01:09 -32.97047 -61.85111 5672 ft 188 kts 122°
2026-03-29 01:09 -32.97824 -61.83860 5802 ft 188 kts 120°
2026-03-29 01:09 -32.98578 -61.82595 5919 ft 188 kts 120°
2026-03-29 01:09 -32.99340 -61.81308 6047 ft 189 kts 120°
2026-03-29 01:10 -33.00085 -61.80046 6156 ft 188 kts 120°
2026-03-29 01:10 -33.00842 -61.78763 6254 ft 188 kts 120°
2026-03-29 01:10 -33.01598 -61.77475 6350 ft 189 kts 120°
2026-03-29 01:10 -33.02342 -61.76195 6433 ft 189 kts 120°
2026-03-29 01:11 -33.03084 -61.74913 6516 ft 189 kts 120°
2026-03-29 01:11 -33.03836 -61.73613 6607 ft 190 kts 120°
2026-03-29 01:11 -33.04588 -61.72312 6694 ft 190 kts 120°
2026-03-29 01:11 -33.05333 -61.71026 6774 ft 190 kts 120°
2026-03-29 01:12 -33.06086 -61.69728 6858 ft 190 kts 120°
2026-03-29 01:12 -33.06833 -61.68435 6941 ft 190 kts 120°
2026-03-29 01:12 -33.07586 -61.67132 7017 ft 190 kts 120°
2026-03-29 01:12 -33.08333 -61.65836 7092 ft 190 kts 120°
2026-03-29 01:13 -33.09086 -61.64525 7176 ft 192 kts 120°
2026-03-29 01:13 -33.09840 -61.63205 7277 ft 193 kts 120°
2026-03-29 01:13 -33.11094 -61.60996 7448 ft 193 kts 120°
2026-03-29 01:14 -33.11852 -61.59658 7556 ft 194 kts 120°
2026-03-29 01:14 -33.12854 -61.57888 7689 ft 194 kts 120°
2026-03-29 01:14 -33.13616 -61.56540 7791 ft 194 kts 120°
2026-03-29 01:14 -33.14118 -61.55653 7855 ft 194 kts 120°
2026-03-29 01:15 -33.14870 -61.54315 7959 ft 194 kts 120°
2026-03-29 01:15 -33.16400 -61.51577 7987 ft 203 kts 120°
2026-03-29 01:15 -33.17183 -61.50170 7973 ft 207 kts 120°
2026-03-29 01:16 -33.18795 -61.47266 7979 ft 211 kts 120°
2026-03-29 01:16 -33.19599 -61.45811 7983 ft 212 kts 120°
2026-03-29 01:16 -33.20417 -61.44323 7977 ft 214 kts 120°
2026-03-29 01:17 -33.21225 -61.42853 7985 ft 214 kts 120°
2026-03-29 01:17 -33.22048 -61.41361 7981 ft 215 kts 120°
2026-03-29 01:17 -33.22876 -61.39857 7985 ft 215 kts 120°
2026-03-29 01:17 -33.23693 -61.38370 7982 ft 216 kts 120°
2026-03-29 01:18 -33.24509 -61.36882 7986 ft 216 kts 120°
2026-03-29 01:18 -33.25338 -61.35363 7985 ft 216 kts 120°
2026-03-29 01:18 -33.26157 -61.33865 7985 ft 216 kts 120°
2026-03-29 01:19 -33.27797 -61.30857 7983 ft 217 kts 120°
2026-03-29 01:19 -33.28624 -61.29335 7984 ft 217 kts 120°
2026-03-29 01:19 -33.29442 -61.27829 7986 ft 216 kts 120°
2026-03-29 01:19 -33.30253 -61.26332 7987 ft 217 kts 120°
2026-03-29 01:20 -33.31075 -61.24815 7985 ft 217 kts 120°
2026-03-29 01:20 -33.31896 -61.23302 7983 ft 216 kts 120°
2026-03-29 01:20 -33.32714 -61.21789 7990 ft 216 kts 120°
2026-03-29 01:20 -33.33526 -61.20285 7979 ft 216 kts 120°